Flag for Indonesia Weather past 2 weeks in Makassar, South Sulawesi, Indonesia

93 °F

Passing clouds.

Feels Like: 105 °F
Forecast: 83 / 90 °F
Wind: 9 mph from West

Location: Ujung Pandang / Hasanuddin

Current Time: Nov 25, 2015 at 11:18:15 AM

Latest Report: Nov 25, 2015 at 11:00 AM

Visibility: 6 mi

Pressure: 29.80 "Hg

Humidity: 56%

Dew point: 75 °F

Location of MakassarLocation

Historic Weather in Makassar — Graph


Makassar temperature yesterday

Maximum temperature yesterday: 95 °F (at 12:30 PM)
Minimum temperature yesterday: 73 °F (at 2:30 AM)
Average temperature yesterday: 84 °F

Past Weeks' High & Low Weather Summary

High95 °F (Nov 23, 1:00 PM)100% (Nov 10, 9:00 PM)29.89 "Hg (Nov 10, 9:00 PM)
Low73 °F (Nov 23, 4:00 AM)47% (Nov 21, 10:30 AM)29.68 "Hg (Nov 10, 3:30 PM)
Average83 °F85%29.79 "Hg
* Reported Nov 10 10:00 AM — Nov 25 10:00 AM, Makassar, Weather by CustomWeather, © 2015

Note: Actual official high and low records may vary slightly from our data, if they occured in-between our weather recording intervals... More about our weather records


Makassar weather history for previous 24 hours

Time TempWeatherWind HumidityBarometerVisibility
10:00 AM
Wed, Nov 25
93 °FPassing clouds.3 mph53%29.80 "Hg6 mi
9:30 AM91 °FPassing clouds.3 mph56%29.80 "Hg6 mi
9:00 AM90 °FPassing clouds.2 mph59%29.80 "Hg6 mi
8:00 AM86 °FPassing clouds.3 mph66%29.83 "Hg6 mi
7:30 AM84 °FPassing clouds.6 mph74%29.80 "Hg6 mi
7:00 AM82 °FPassing clouds.5 mph74%29.80 "Hg6 mi
6:00 AM79 °FPassing clouds.No wind84%29.77 "Hg6 mi
5:30 AM79 °FPassing clouds.3 mph84%29.77 "Hg6 mi
5:00 AM77 °FPassing clouds.3 mph94%29.77 "Hg5 mi
4:30 AM79 °FPassing clouds.3 mph89%29.74 "Hg5 mi
4:00 AM79 °FPassing clouds.3 mph89%29.74 "Hg5 mi
3:30 AM79 °FPassing clouds.3 mph89%29.74 "Hg5 mi
3:00 AM81 °FPassing clouds.5 mph84%29.74 "Hg5 mi
2:30 AM81 °FPassing clouds.2 mph89%29.74 "Hg5 mi
2:00 AM81 °FPassing clouds.3 mph89%29.74 "Hg5 mi
1:30 AM82 °FPassing clouds.3 mph79%29.77 "Hg5 mi
12:30 AM82 °FPassing clouds.5 mph79%29.77 "Hg5 mi
12:00 AM82 °FPassing clouds.3 mph79%29.77 "Hg5 mi
11:30 PM
Tue, Nov 24
82 °FPassing clouds.2 mph89%29.77 "Hg5 mi
11:00 PM82 °FPassing clouds.3 mph94%29.77 "Hg5 mi
10:30 PM82 °FPassing clouds.5 mph94%29.77 "Hg5 mi
10:00 PM84 °FPassing clouds.5 mph94%29.77 "Hg5 mi
9:30 PM84 °FPassing clouds.7 mph94%29.77 "Hg5 mi
9:00 PM84 °FPassing clouds.6 mph94%29.77 "Hg5 mi
8:30 PM86 °FPassing clouds.8 mph89%29.77 "Hg5 mi
8:00 PM86 °FPassing clouds.9 mph89%29.74 "Hg5 mi
7:30 PM86 °FPassing clouds.8 mph84%29.74 "Hg5 mi
7:00 PM86 °FPassing clouds.8 mph84%29.74 "Hg5 mi
6:30 PM88 °FPassing clouds.9 mph79%29.71 "Hg5 mi
6:00 PM88 °FPassing clouds.8 mph79%29.71 "Hg5 mi
5:30 PM90 °FPassing clouds.12 mph71%29.71 "Hg6 mi
5:00 PM90 °FPassing clouds.12 mph75%29.71 "Hg6 mi
4:30 PM90 °FPassing clouds.13 mph75%29.68 "Hg6 mi
4:00 PM91 °FPassing clouds.13 mph71%29.68 "Hg6 mi
3:00 PM91 °FPassing clouds.13 mph67%29.71 "Hg6 mi
2:00 PM93 °FPassing clouds.13 mph59%29.71 "Hg6 mi
1:30 PM93 °FPassing clouds.13 mph56%29.71 "Hg6 mi
1:00 PM93 °FPassing clouds.15 mph59%29.74 "HgN/A
12:30 PM95 °FPassing clouds.14 mph53%29.74 "HgN/A
12:00 PM93 °FPassing clouds.12 mph53%29.74 "HgN/A
11:00 AM93 °FPassing clouds.6 mph53%29.77 "HgN/A
Weather by CustomWeather, © 2015

See weather overviewHow to use our weather pages